www.pogodaiklimat.ru

Погода и климат >> Архив погоды >> Россия >> Костромская область >> Николо-Полома


ПОГОДА в Николо-Поломе

  • Прогноз погоды в Николо-Поломе
  • Монитор погоды в Николо-Поломе

АРХИВ ПОГОДЫ в Николо-Поломе

Время (UTC), дата Ветер
(напр.,м/с)
 
Видим.   Явления Облачность Т
(С)
Тd
(С)
f
(%)
Тe
(С)
Тes
(С)
Комфортность P
(гПа)
Po
(гПа)
Тmin
(С)
Tmax
(С)
R
(мм)
R24
(мм)
S
(см)
18 10.07 С 2 9000 м в посл. час дождь 10/8 300 м
[Cu hum As op]
+12.3 +11.0 92 +11 +11 996.3 978.7
21 10.07 С 3 4000 м дымка 10/8 300 м
[Sc Ac trans]
+11.3 +9.5 89 +9 +9 997.2 979.5
00 11.07 СВ 1 9000 м дымка 10/8 300 м
[Sc Ac trans]
+9.4 +8.4 93 +9 +9 998.3 980.5
03 11.07 С 1 9000 м дымка 9/6 300 м
[Sc Ac trans]
+9.9 +8.6 92 +9 +10 999.4 981.6 +8.6 0.5
06 11.07 СЗ 1 50 км 9/8 300 м
[Sc Ac As]
+11.4 +8.2 81 +11 +13 1000.4 982.6
09 11.07 С 3 50 км 8/6 300 м
[Sc Ac As]
+12.5 +8.2 75 +11 +14 1001.7 984.0
12 11.07 С 2 50 км 8/4 300 м
[Sc Ac As]
+13.3 +7.1 66 +13 +16 1002.5 984.9
15 11.07 Ю 1 50 км {ливн. осадки} 6/6 300 м
[Sc]
+13.6 +8.8 73 +14 +15 1003.3 985.7 +14.5
18 11.07 ЮЗ 1 50 км {ливн. осадки} 10/10 600 м
[Sc]
+11.5 +9.3 86 +11 +11 1003.9 986.2
21 11.07 С 2 20 км 10/10 600 м
[Sc]
+10.6 +8.0 84 +9 +9 1004.2 986.3
00 12.07 СВ 1 7000 м слаб. дождь 10/8 300 м
[Frnb As op]
+9.4 +8.1 92 +9 +9 1004.4 986.5
03 12.07 С 1 12 км {дождь} 10/10 600 м
[Sc]
+10.2 +8.3 88 +10 +10 1005.0 987.1 +9.1 0.0
06 12.07 СЗ 1 50 км {дождь} 10/4 600 м
[Cu med, cong Ac trans Ci fib]
+13.7 +4.3 53 +14 +18 1005.7 988.0
09 12.07 З 1 50 км 8/6 600 м
[Cb calv Ac trans]
+15.7 +2.8 42 +17 +21 1006.7 989.1
12 12.07 ЮЗ 1 50 км 8/4 600 м
[Cu med, cong Ac trans]
+15.8 +4.4 47 +17 +21 1007.3 989.7
15 12.07 З 1 50 км 9/3 600 м
[Sc Ac trans]
+15.2 +7.0 58 +16 +17 1008.2 990.5 +16.9
18 12.07 штиль 0 50 км 9/8 300 м
[Sc Ac As]
+12.3 +8.7 79 +12 +12 1009.0 991.2
21 12.07 С 1 4000 м дымка 10/10 300 м
[Sc]
+9.4 +8.7 95 +9 +9 1009.1 991.1
00 13.07 штиль 0 9000 м дымка 10/10 300 м
[Sc]
+10.0 +8.9 93 +9 +9 1008.6 990.6
03 13.07 С 1 50 км 8/8 300 м
[Sc]
+11.4 +8.7 83 +11 +12 1008.0 990.2 +9.2
06 13.07 С 1 50 км 8/5 300 м
[Cu med, cong Ac trans Ci fib]
+16.7 +8.7 59 +18 +21 1007.6 990.1
09 13.07 С 1 50 км 9/8 600 м
[Cb cap Ac trans Ci fib]
+17.9 +8.7 55 +19 +22 1007.2 989.8
12 13.07 СЗ 2 50 км 10/8 300 м
[Sc Ac trans]
+16.7 +9.9 64 +17 +18 1007.7 990.2
15 13.07 СЗ 3 50 км 9/8 300 м
[Sc Ac trans]
+16.5 +9.1 62 +16 +17 1008.3 990.7 +18.9
18 13.07 СЗ 1 50 км 9/3 600 м
[Sc Ac trans]
+13.3 +9.8 79 +14 +14 1009.3 991.6
21 13.07 штиль 0 20 км 10/10 300 м
[Sc]
+12.4 +10.7 89 +12 +12 1009.6 991.8
00 14.07 СЗ 1 18 км 10/10 300 м
[Sc]
+12.0 +9.8 86 +12 +12 1009.8 992.0
03 14.07 СЗ 1 50 км 9/9 600 м
[Sc]
+13.1 +9.2 77 +13 +13 1010.0 992.2 +11.8
06 14.07 С 3 50 км 4/4 600 м
[Sc]
+17.4 +8.5 56 +17 +22 1009.9 992.3
09 14.07 С 1 50 км 8/8 300 м
[Cu med, cong]
+18.9 +6.6 45 +20 +24 1009.7 992.3
12 14.07 СЗ 2 50 км 9/9 300 м
[Cb calv]
+20.8 +7.1 41 +23 +24 комфорт 1009.4 992.1
15 14.07 СЗ 1 50 км 3/3 600 м
[Sc]
+20.3 +8.4 46 +23 +24 комфорт 1009.6 992.3 +21.5
18 14.07 СЗ 2 50 км 3/3 300 м
[Sc]
+14.2 +9.1 71 +14 +14 1010.4 992.7
21 14.07 СЗ 2 20 км 3/3 300 м
[Sc]
+10.7 +9.1 90 +9 +9 1010.5 992.6
00 15.07 З 1 9000 м дымка 4/4 300 м
[Sc]
+8.6 +7.7 94 +8 +8 1011.2 993.1
03 15.07 В 2 50 км 6/4 300 м
[Sc Ac trans]
+11.9 +10.0 88 +11 +12 1010.8 992.9 +8.4
06 15.07 С 2 50 км 5/4 300 м
[Sc Ac As]
+18.7 +10.3 58 +20 +25 1010.2 992.7
09 15.07 С 1 50 км 8/5 600 м
[Cu med, cong Ac As]
+21.9 +8.4 42 +23 +28 комфорт 1009.2 992.0
12 15.07 СЗ 2 50 км {ливн. осадки} 8/8 600 м
[Cb cap]
+21.6 +9.6 46 +23 +25 комфорт 1009.1 991.8
15 15.07 С 2 50 км 8/6 600 м
[Cu med, cong Ac und Ci fib]
+21.6 +9.1 45 +23 +24 комфорт 1009.1 991.8 +22.2
18 15.07 СЗ 2 50 км 4/4 600 м
[Sc]
+15.4 +10.0 70 +15 +15 1009.9 992.3
21 15.07 З 2 20 км ясно +10.5 +9.0 90 +9 +9 1010.0 992.0
00 16.07 З 2 9000 м дымка ясно +9.4 +8.5 94 +8 +8 1011.0 993.0
03 16.07 З 1 50 км ясно +13.0 +10.8 86 +13 +15 1011.1 993.3 +8.7
06 16.07 З 2 50 км 3/0
[Ci fib]
+19.1 +10.5 57 +21 +29 комфорт 1011.3 993.9
09 16.07 СЗ 2 50 км 8/6 600 м
[Cu med, cong Ci fib]
+20.7 +9.2 48 +23 +28 комфорт 1011.5 994.1
12 16.07 З 1 50 км 8/8 600 м
[Cu med, cong]
+21.5 +9.0 45 +23 +25 комфорт 1011.8 994.5
15 16.07 З 1 50 км 6/4 600 м
[Cu med, cong Ci fib]
+22.5 +8.0 39 +24 +25 комфорт 1011.5 994.3 +23.3
18 16.07 В 1 50 км 5/3 300 м
[Sc Ci fib]
+16.4 +11.3 72 +17 +17 1012.6 995.0
21 16.07 В 1 4000 м дымка 3/0
[Ci fib]
+11.2 +10.2 94 +11 +11 1013.2 995.3
00 17.07 В 1 50 км 4/3 300 м
[Sc Ci fib]
+11.6 +9.6 88 +11 +11 1013.3 995.4
03 17.07 В 2 50 км 3/0
[Ci fib]
+13.6 +10.5 82 +13 +15 1013.2 995.4 +10.7
06 17.07 ЮВ 2 50 км 8/0
[Ci fib]
+20.6 +12.3 59 +23 +31 комфорт 1012.5 995.2
09 17.07 ЮВ 3 50 км 9/3 600 м
[Cu med, cong Cs]
+23.2 +11.8 49 +26 +33 жарко 1012.1 994.9
12 17.07 ЮВ 3 50 км 9/5 600 м
[Cu med, cong Ac trans Ci fib]
+23.9 +10.4 43 +25 +28 комфорт 1011.2 994.0
15 17.07 В 2 50 км 9/5 300 м
[Sc Ac trans Ci fib]
+21.9 +11.8 53 +24 +25 комфорт 1010.4 993.2 +24.1

 

Местоположение метеостанции Николо-Полома (Костромская область, Россия): широта 58.35 долгота 43.38 высота над уровнем моря 144 м.

В архиве по умолчанию представлена погода в Николо-Поломе за последнюю неделю. Архивные данные за месяц целиком и за предыдущие месяцы, начиная с января 2011 года, Вы можете получить, выбрав интересующий диапазон дат из раскрывающегося списка и нажав кнопку "Ввод!".


*Определитесь, кто Вы:
робот инопланетянин человек

Внимание! Время в таблицах - всемирное. Для получения местного времени необходимо прибавить поправку, которая равна 3 ч.

Смотрите также архив погоды в соседних городах и на ближайших метеорологических станциях:

Погода в Макарьеве (Костромская область, Россия) (55 км)
Погода в Галиче (Костромская область, Россия) (59 км)
Погода в Чухломе (Костромская область, Россия) (61 км)
Погода в Кологриве (Костромская область, Россия) (76 км)
Погода в Мантурово (Костромская область, Россия) (82 км)
Погода в Буе (Костромская область, Россия) (109 км)
Погода в Юрьевце (Ивановская область, Россия) (114 км)
Погода в Кинешме (Ивановская область, Россия) (125 км)
Погода в Шарье (Костромская область, Россия) (125 км)
Погода в Пыщуге (Костромская область, Россия) (147 км)

Пояснения к столбцам:

Ветер - указаны скорость ветра в м/с - средняя за 10 мин, порывы в срок и между сроками (в фигурных скобках) и направление, откуда дует ветер: С - северный, СВ - северо-восточный, В - восточный, ЮВ - юго-восточный, Ю - южный, ЮЗ - юго-западный, З - западный, СЗ - северо-западный.
Видимость - горизонтальная дальность видимости в метрах или километрах. При видимости от 1 до 10 км при отсутствии осадков обычно наблюдается дымка, при ухудшении видимости до 1 км и менее - туман. В сухую погоду видимость может ухудшаться дымом, пылью или мглою.
Явления - указаны атмосферные явления, наблюдавшиеся в срок или в последний час перед сроком; фигурными скобками обозначены явления, наблюдавшиеся между сроками (за 1-3 часа до срока); квадратными скобками обозначены град или гололедные отложения с указанием их диаметра в мм.
Облачность - указаны через наклонную черту общая и нижняя облачность в баллах и высота нижней границы облаков в метрах; квадратными скобками обозначены формы облаков: Ci - перистые, Cs - перисто-слоистые, Cc - перисто-кучевые, Ac - высококучевые, As - высокослоистые, Sc - слоисто-кучевые, Ns - слоисто-дождевые, Cu - кучевые, Cb - кучево-дождевые. Подробнее классификацию облаков см. в Атласе облаков (PDF).
T - Температура воздуха - температура, измеренная на высоте 2 м над землей.
Td - Температура точки росы - температура, при понижении до которой содержащийся в воздухе водяной пар достигнет насыщения.
f - Относительная влажность воздуха - влажноcть воздуха, измеренная на высоте 2 м над землей.
Te - Эффективная температура - температура, которую ощущает одетый по сезону человек в тени. Характеристика душности погоды. При расчете учитывается влияние влажности воздуха и скорости ветра на теплоощущения человека.
Tes - Эффективная температура на солнце - температура, которую ощущает человек, с поправкой на солнечный нагрев. Характеристика знойности погоды. Зависит от высоты солнца над горизонтом, облачности и скорости ветра. Ночью, в пасмурную погоду, а также при ветре 12 м/с и более поправка равна нулю.
P - Атмосферное давление - приведенное к уровню моря атмосферное давление.
Po - Атмосферное давление - измеренное на уровне метеостанции атмосферное давление.
Tmin - Минимальная температура - минимум температуры воздуха на высоте 2 м над землей.
Tmax - Максимальная температура - максимум температуры воздуха на высоте 2 м над землей.
R - Количество осадков - Количество выпавших осадков за период времени, мм. При наведении курсора мыши на число - период времени, за который выпало указанное количество осадков.
R24 - Количество осадков - Количество выпавших осадков за 24 часа, мм.
S - Снежный покров - Высота снежного покрова, см. При наведении курсора мыши на число - состояние снежного покрова и степень покрытия местности в баллах.